Tracking 31027 objects as of 19-Jul-2025
HD Live streaming from Space Station
objects crossing your sky now

COSMOS 2251 DEB

Track COSMOS 2251 DEB now!
10-day predictions


NORAD ID: 37959
Int'l Code: 1993-036BPJ
Perigee: 668.3 km
Apogee: 752.5 km
Inclination: 74.0 °
Period: 98.8 minutes
Semi major axis: 7081 km
RCS: 0.0013 m2 (small)
Launch date: June 16, 1993
Source: Commonwealth of Independent States (former USSR) (CIS)
Launch site: PLESETSK MISSILE AND SPACE COMPLEX (PKMTR)

Note: This is SATELLITE DEBRIS
Your satellite tracking list
Your tracking list is empty




NASA's NSSDC Master Catalog

Two Line Element Set (TLE):
1 37959U 93036BPJ 25199.36960468  .00002437  00000-0  53714-3 0  9991
2 37959  74.0120 337.4534 0059458 154.0601 236.7907 14.56869462779802
Source of the keplerian elements: AFSPC